CAPE
0 0 0 0 0 0 0 0 0 0 0 45 4 43 7 42 30 242 429 487 271 353 370 570 464 415 559 756 841 682 957 1264 1233 1193 1064 1173 568 703 464 400 548 1081 1366 1703
0 0 0 0 0 0 0 0 0 0 1 2 22 1 22 60 8 49 325 265 499 322 332 530 528 430 477 712 1079 888 1029 1329 1595 1410 1405 1091 1045 846 521 259 589 1217 991 1701
0 0 0 0 0 0 0 0 0 0 0 9 4 3 14 40 38 28 185 234 471 518 403 413 561 495 422 843 1209 1439 1420 1995 1642 1736 1814 1345 1300 916 409 363 635 681 1272 1446
0 0 0 0 0 0 0 0 0 0 0 0 1 7 17 17 5 11 37 311 239 616 548 432 585 526 532 824 1364 1831 1856 2105 1869 1897 1658 1461 1007 674 671 397 588 749 973 1796
0 0 0 0 0 0 0 0 0 0 0 0 1 1 3 21 9 15 46 204 316 610 693 587 564 591 646 741 1433 1974 2122 2137 2345 1532 2106 1385 1070 899 458 675 658 742 1284 1419
0 0 0 0 0 0 0 0 0 0 0 0 0 0 1 4 1 10 33 46 403 503 782 892 695 673 629 830 1247 1776 2192 2048 2196 2144 1487 1972 1231 899 666 418 657 1240 1847 1625
0 0 0 0 0 0 0 0 0 0 0 0 0 0 0 0 9 0 1 9 104 565 746 1101 1000 850 710 840 1201 1417 2271 2141 2016 2232 1621 1782 1869 809 1180 977 741 1289 977 1863
0 0 0 0 0 0 0 0 0 0 0 0 0 0 0 0 1 1 13 14 55 217 602 1021 1240 1087 833 791 981 1353 2204 2231 2245 2080 2298 1631 2477 1632 752 1941 1114 1049 1235 1015
0 0 0 0 0 0 0 0 0 0 0 0 0 0 0 0 0 0 12 73 59 78 222 797 1253 1290 1038 810 969 1252 1929 2380 2511 2125 2506 2210 1657 2425 1085 1201 1798 1609 1139 1400
0 0 0 0 0 0 0 0 0 0 0 0 0 0 0 0 0 0 0 3 27 53 132 695 1140 1452 1225 901 989 1142 1766 2420 2561 2678 2463 2620 2052 2182 2170 1075 1702 1427 1812 1118
0 0 0 0 0 0 0 0 0 0 0 0 0 0 0 0 0 0 0 0 1 105 245 571 1209 1480 1472 1125 1087 1176 1372 2282 2760 2794 2733 2654 2772 2136 1992 2201 1746 2322 1537 2562
0 0 0 0 0 0 0 0 0 0 0 0 0 1 0 0 0 0 0 0 0 9 364 506 887 1409 1680 1427 1222 1285 1520 2003 2678 3072 3058 2856 2820 2992 2512 1769 2118 2351 2908 1878
0 0 0 0 0 0 0 0 0 0 0 0 0 0 0 0 0 0 0 0 0 1 58 450 910 1160 1596 1697 1555 1506 1584 1777 2592 3041 3160 3062 2958 2893 2949 2899 2013 2529 2541 3141
0 0 0 0 0 0 0 0 0 0 0 0 0 0 0 0 0 0 0 0 0 2 10 475 758 1117 1426 1712 1842 1771 1723 1878 2066 2846 3120 3097 3146 3000 2976 2919 2976 2355 2854 2691
0 0 0 0 0 1 0 0 0 0 0 0 0 0 0 0 0 0 0 0 5 29 201 438 676 1205 1190 1474 1818 2033 1980 1975 2046 2107 2901 2977 3057 3275 3042 3036 3023 3196 2810 2866
0 0 0 0 0 0 0 0 0 0 0 0 0 0 0 0 0 0 0 0 0 0 14 19 32 74 284 1575 1878 1969 2077 2298 2212 2227 2371 2689 2904 3067 3445 3260 3216 3230 3294 3216
0 0 0 0 0 0 0 0 0 0 0 0 0 0 0 0 0 0 0 0 0 0 0 0 0 0 16 199 1900 2132 2114 2163 2465 2429 2588 2613 2825 2987 3228 3478 3443 3385 3419 3488
0 0 0 0 0 0 0 0 0 0 0 0 0 0 0 0 0 0 0 0 0 0 0 0 0 0 0 0 248 1089 2213 2172 2092 2378 2477 3167 3033 3056 3276 3469 3626 3673 3671 3688
0 0 0 0 0 0 3 0 0 0 0 0 0 0 0 0 0 0 0 0 0 0 0 0 0 0 0 0 22 279 426 1913 2215 1994 2296 2314 3248 3263 3419 3586 3742 3854 3912 3880
0 0 0 0 0 0 0 0 0 0 0 112 6 0 0 0 0 278 639 560 529 573 547 510 306 145 14 10 0 0 606 1460 1742 1883 2113 2759 2649 3175 3349 3711 3928 4018 4094 4076
0 0 0 0 0 0 0 0 0 0 43 43 27 32 9 118 469 473 104 231 652 743 635 524 399 257 424 337 36 110 39 372 1810 2155 2467 2863 3298 3116 3430 3625 4062 4139 4202 4191
0 0 0 0 0 0 0 0 7 8 0 0 0 0 0 0 0 8 0 38 532 964 887 546 364 104 403 632 215 50 290 655 976 1749 2634 3136 3267 3498 3649 3752 4105 4170 4096 4086
0 6 0 0 0 0 0 0 0 0 0 0 0 0 0 0 0 0 47 172 1106 1369 1151 1431 1400 1288 1446 1291 2064 1885 2142 2340 1847 2951 2729 2935 3576 3805 3409 3887 3947 4092 4084 4063
0 0 0 0 0 0 0 0 0 0 0 0 0 0 0 0 0 0 25 210 757 1659 1371 1055 1269 1683 2910 3684 3594 3225 3597 2921 2750 3335 3513 3517 3839 3941 3912 3804 4061 3996 3943 3928
0 0 0 0 0 0 0 0 0 0 0 0 0 0 0 0 0 0 0 93 251 1112 2083 2367 2286 2340 2626 2527 2463 2387 2619 3294 3430 3200 3480 3737 3691 3769 3942 3887 3400 4074 3803 3633
0 0 0 0 0 0 0 0 0 0 0 0 0 0 0 0 0 0 7 95 186 481 1070 1755 2208 1919 2010 2074 2008 2150 2239 2500 3296 3792 3745 3650 3456 3578 3434 3761 3529 3361 2903 1979
CIN
0 0 0 0 0 0 0 0 0 0 0 -5 -28 -7 -24 -23 -52 -28 -7 -26 -52 -39 -35 -21 -15 -6 -3 -9 -17 -21 -8 -5 -21 -7 -6 -2 -19 -5 -11 -8 -5 -12 -12 -5
0 0 0 0 0 0 0 0 0 0 -8 -2 -4 -6 -21 -52 -83 -126 -22 -66 -27 -20 -36 -28 -38 -15 -9 -26 -23 -34 -15 -5 -7 -8 -5 -4 -1 -3 -16 -36 -4 -7 -19 -2
0 0 0 0 0 0 0 0 0 0 0 -15 -15 -24 -5 -20 -18 -47 -16 -136 -6 -22 -32 -64 -68 -49 -46 -29 -29 -28 -19 -4 -13 -4 -2 -2 -2 -3 -24 -31 -14 -35 -10 -9
0 0 0 0 0 0 0 0 0 0 0 -1 -5 -6 -9 -14 -11 -16 -39 -5 -1 -16 -20 -55 -65 -68 -76 -45 -35 -28 -18 -7 -16 -4 -2 -6 -29 -41 -32 -50 -35 -48 -34 -2
0 0 0 0 0 0 0 0 0 0 0 0 -4 -4 -3 -13 -12 -7 -11 -19 -78 -11 -28 -59 -81 -96 -79 -54 -26 -30 -24 -12 -3 -17 -2 -17 -33 -45 -69 -28 -24 -44 -36 -18
0 0 0 0 0 0 0 0 0 0 0 0 0 0 -3 -3 -11 -12 -4 -4 -7 -7 -13 -41 -59 -67 -64 -37 -25 -17 -27 -22 -6 -6 -21 -5 -43 -58 -64 -98 -53 -10 -10 -19
0 0 0 0 0 0 0 0 0 0 0 0 0 0 0 -1 -4 -2 -2 -7 -7 -11 -7 -29 -52 -76 -87 -71 -62 -53 -48 -61 -51 -19 -58 -43 -26 -81 -47 -55 -62 -25 -55 -17
0 0 0 0 0 0 0 0 0 0 0 0 0 0 0 0 -2 -50 -17 -16 -3 -5 -4 -15 -47 -79 -110 -101 -101 -96 -77 -110 -88 -65 -36 -65 -8 -52 -103 -22 -56 -46 -37 -53
0 0 0 0 0 0 0 0 0 0 0 0 0 0 0 0 0 0 -7 -3 -5 -15 -4 -19 -48 -66 -115 -119 -134 -133 -116 -110 -94 -104 -44 -67 -101 -31 -112 -85 -29 -35 -39 -10
0 0 0 0 0 0 0 0 0 0 0 0 0 0 0 0 0 0 0 -5 -5 -8 -6 -10 -34 -49 -117 -155 -145 -149 -121 -131 -154 -121 -103 -80 -137 -102 -73 -127 -68 -66 -41 -56
0 0 0 0 0 0 0 0 0 0 0 0 0 0 0 0 0 0 0 0 -1 -3 -12 -12 -20 -42 -95 -131 -137 -155 -152 -120 -99 -115 -135 -117 -82 -126 -121 -73 -106 -53 -73 -15
0 0 0 0 0 0 0 0 0 0 0 0 0 -9 0 0 0 0 0 0 0 -7 -12 -17 -20 -30 -46 -109 -158 -165 -172 -154 -160 -128 -106 -106 -104 -84 -124 -166 -113 -91 -36 -69
0 0 0 0 0 0 0 0 0 0 0 0 0 0 0 0 0 0 0 0 -2 -4 -6 -10 -18 -20 -39 -76 -122 -157 -197 -209 -137 -105 -92 -92 -106 -116 -103 -109 -174 -105 -95 -41
0 0 0 0 0 0 0 0 0 0 0 0 0 0 0 0 0 0 0 0 0 -11 -1 -12 -14 -22 -15 -48 -95 -143 -175 -165 -170 -124 -117 -123 -120 -127 -114 -106 -109 -155 -91 -119
0 0 0 0 0 -10 0 0 0 0 0 0 0 0 0 0 0 0 0 0 -73 -18 -6 -12 -7 -21 -26 -27 -61 -76 -98 -131 -146 -180 -163 -192 -189 -140 -141 -125 -113 -90 -131 -137
0 0 0 0 0 0 0 0 0 0 0 0 0 0 0 0 0 0 0 0 0 0 -113 -78 -50 -39 -37 -15 -30 -67 -62 -83 -111 -149 -184 -216 -202 -193 -139 -143 -144 -136 -141 -131
0 0 0 0 0 0 0 0 0 0 0 0 0 0 0 0 0 0 0 0 0 0 0 0 0 0 -82 -94 -35 -66 -78 -81 -86 -123 -167 -190 -205 -218 -197 -163 -155 -170 -148 -125
0 0 0 0 0 0 0 0 0 0 0 0 0 0 -8 -5 0 0 0 0 0 0 0 0 0 0 0 0 -83 -83 -88 -112 -120 -132 -147 -144 -169 -207 -199 -180 -165 -147 -145 -151
0 0 0 0 0 0 -4 0 0 0 0 0 0 0 0 0 0 0 0 0 0 0 0 0 0 0 0 0 -80 -132 -117 -109 -124 -155 -183 -194 -173 -183 -199 -214 -197 -166 -139 -142
0 0 0 0 0 0 0 0 0 0 0 -69 -7 0 0 0 0 -61 -106 -122 -105 -113 -123 -167 -243 -269 -18 -119 0 0 -127 -123 -155 -199 -222 -204 -228 -218 -225 -222 -189 -157 -134 -133
0 0 0 0 0 0 0 0 0 0 -123 -179 -124 -70 -57 -36 -108 -226 -307 -244 -180 -149 -137 -163 -221 -256 -185 -237 -335 -238 -233 -163 -142 -168 -181 -191 -211 -247 -251 -203 -152 -129 -107 -103
0 0 0 0 0 0 0 0 -54 -37 0 0 0 0 0 0 0 -143 -36 -484 -236 -150 -139 -154 -204 -363 -232 -190 -305 -356 -220 -172 -178 -108 -164 -183 -209 -228 -194 -184 -124 -114 -92 -94
0 -4 0 0 0 0 0 0 0 0 0 0 0 0 0 0 0 0 -529 -400 -89 -32 -48 -75 -88 -80 -69 -140 -105 -127 -150 -154 -157 -92 -137 -177 -167 -178 -185 -139 -129 -97 -95 -98
0 0 0 0 0 0 0 0 0 0 0 0 0 0 0 0 0 0 -433 -307 -95 -6 -53 -147 -129 -61 -18 -29 -50 -99 -102 -155 -168 -120 -128 -143 -125 -130 -118 -100 -101 -86 -102 -95
0 0 0 0 0 0 0 0 0 0 0 0 0 0 0 0 0 0 0 -282 -204 -38 -17 -16 -17 -17 -51 -125 -173 -237 -238 -182 -155 -153 -148 -120 -110 -99 -88 -81 -107 -60 -75 -61
0 0 0 0 0 0 0 0 0 0 0 0 0 0 0 0 0 0 -2 -274 -208 -127 -51 -9 -6 -37 -85 -148 -201 -202 -250 -224 -132 -86 -84 -81 -82 -60 -82 -55 -65 -67 -93 -242
Wind_Speed
15 18 25 26 26 28 33 26 24 31 13 18 21 14 9 6 31 33 16 14 19 20 24 20 20 19 14 14 16 18 19 21 15 30 32 32 30 26 27 25 15 15 16 17
17 32 19 17 28 41 39 40 31 20 19 10 16 25 10 5 10 29 12 20 16 17 22 22 23 24 24 19 16 18 18 16 10 8 16 32 27 26 22 25 22 15 17 19
23 23 24 22 23 21 23 21 32 32 22 26 11 16 18 9 12 6 18 13 17 17 23 26 25 27 24 21 20 19 19 12 11 8 10 28 30 30 20 26 25 19 19 20
25 24 17 22 21 19 25 27 36 34 33 23 19 34 14 12 13 11 10 12 13 18 20 24 22 24 23 20 20 20 19 14 14 15 14 12 30 28 27 25 26 21 21 22
27 24 23 19 23 18 28 20 29 40 41 38 25 26 25 17 23 15 23 11 24 12 19 22 23 23 20 19 21 20 20 17 14 21 29 19 22 29 29 23 26 22 18 18
50 28 33 28 20 28 30 33 28 29 38 42 40 35 19 17 23 18 16 15 15 16 19 20 19 19 22 17 18 16 19 19 18 19 34 29 23 32 27 28 25 20 12 15
39 51 33 38 31 25 29 27 20 20 27 32 19 25 38 15 24 20 20 20 17 16 16 18 20 21 21 21 21 21 21 22 23 24 30 33 25 29 29 22 24 14 15 13
38 39 35 29 29 22 24 23 21 31 30 26 35 43 41 47 38 21 31 18 17 17 17 21 21 20 21 22 22 21 24 24 24 27 28 32 33 23 29 25 15 19 11 12
37 49 30 51 32 31 30 42 24 38 36 39 33 36 42 45 49 44 29 15 17 19 21 22 20 20 19 21 25 25 25 26 26 28 27 29 30 25 23 22 18 9 14 5
53 41 47 32 36 38 50 26 40 45 43 37 35 22 19 28 25 35 22 27 15 19 19 19 21 21 20 22 22 24 23 27 27 27 29 29 27 25 22 23 18 17 7 14
57 52 44 45 44 43 42 42 39 43 42 39 33 32 11 24 21 20 20 20 15 19 21 20 20 22 21 18 18 22 24 25 27 28 28 28 25 25 24 21 20 16 18 8
55 54 54 48 44 40 42 44 29 38 31 43 36 20 17 8 14 12 17 20 21 17 17 18 20 19 18 18 18 22 25 26 27 24 26 26 24 23 25 27 24 22 19 22
29 55 56 52 42 41 51 42 47 35 40 43 39 24 11 6 7 8 9 18 18 17 18 15 17 18 20 20 19 20 24 27 20 21 22 22 23 26 26 25 26 24 23 21
32 42 55 53 46 38 41 46 41 46 38 40 41 16 12 10 12 7 5 14 16 18 20 14 13 19 18 20 20 19 20 20 21 22 24 25 24 25 24 24 24 25 23 23
32 43 47 55 45 35 37 41 40 43 40 41 32 28 9 8 9 7 5 9 9 12 18 16 14 17 19 15 18 18 18 19 19 23 24 26 23 22 23 23 23 23 24 26
27 37 40 46 46 40 40 39 44 42 45 34 41 29 8 5 5 5 5 7 7 7 8 11 14 12 9 12 14 17 16 16 18 20 25 23 21 24 25 24 24 24 25 26
27 28 35 48 40 41 42 38 41 44 40 39 37 30 10 8 7 7 7 8 11 14 16 18 17 15 15 15 12 15 14 13 14 21 21 22 21 23 24 25 26 28 26 25
31 31 34 41 37 47 35 32 30 39 40 39 35 35 9 7 7 7 8 11 16 19 22 23 25 24 23 15 14 18 17 16 15 15 16 16 18 20 19 21 25 26 25 25
30 32 33 35 36 33 32 33 34 28 31 37 36 36 17 10 10 13 15 17 21 24 28 28 28 31 25 17 16 17 16 16 16 17 17 15 14 14 16 20 21 21 22 23
35 32 34 32 34 40 29 30 23 29 32 18 23 24 23 20 24 17 16 18 19 21 21 23 25 24 27 22 26 16 15 17 15 16 17 18 17 16 16 16 17 17 18 20
38 38 41 37 35 25 22 15 17 35 28 18 16 19 24 20 15 18 19 21 23 25 26 26 26 26 24 24 27 29 30 30 15 18 21 21 22 20 18 17 16 17 18 18
37 39 43 41 39 31 16 18 19 16 14 14 14 14 17 19 20 22 22 22 25 27 28 29 29 29 30 29 33 35 36 36 37 32 25 23 24 22 23 21 19 17 20 20
34 30 38 44 42 19 17 13 15 15 16 16 17 19 21 22 24 24 23 24 26 29 26 24 28 27 27 21 25 29 30 28 30 28 24 25 23 22 23 21 20 20 20 20
28 27 34 36 44 34 26 26 21 19 23 22 23 24 24 25 26 25 27 29 29 26 23 25 27 26 20 21 23 23 23 23 23 22 19 18 18 18 19 21 19 18 18 19
34 34 35 39 40 40 35 32 32 30 29 30 28 30 28 28 28 28 29 29 30 28 25 25 25 22 21 21 22 22 22 23 22 20 19 18 18 16 16 17 19 17 18 21
39 42 45 47 40 40 40 37 38 41 39 37 36 34 32 31 32 32 29 29 30 31 29 28 26 23 21 21 22 23 22 22 21 17 17 16 16 15 17 17 18 22 21 18
Wind_Direction
216 234 200 198 197 249 252 257 257 254 193 189 183 185 162 204 267 198 148 150 143 150 156 156 162 162 166 161 158 160 156 164 150 164 176 196 191 179 193 207 140 127 139 151
225 201 204 223 246 243 245 247 254 257 233 236 191 193 190 189 163 178 146 175 144 148 155 160 162 164 165 164 164 164 164 164 179 219 157 188 178 182 170 189 170 137 147 158
209 254 244 241 241 226 216 225 253 255 257 261 227 201 195 203 185 280 179 162 164 153 158 161 162 168 167 167 167 167 168 186 185 200 165 178 207 203 161 180 181 160 160 169
238 227 224 233 213 215 203 198 251 255 256 254 251 256 248 207 199 181 242 188 208 149 157 163 165 167 169 172 169 167 169 187 183 170 164 164 181 178 180 177 182 166 167 176
218 238 224 222 202 218 200 243 248 248 250 257 254 255 264 199 195 198 181 181 176 167 159 166 170 171 171 171 169 168 170 176 179 172 207 167 169 184 187 173 185 170 160 164
236 241 244 244 242 245 246 247 249 250 252 237 249 255 244 220 191 188 186 183 179 172 166 168 171 171 172 175 177 179 174 176 178 175 182 179 171 187 178 185 178 166 146 157
239 237 241 242 246 238 240 239 238 219 205 205 217 242 250 203 192 193 194 179 177 175 179 171 172 172 174 174 174 177 176 177 178 178 180 184 175 181 187 173 178 156 159 155
237 236 227 237 226 227 220 218 229 192 194 198 205 214 211 230 236 188 190 187 185 180 179 171 172 174 175 176 173 177 177 177 177 178 179 183 187 177 187 184 168 174 161 160
236 238 230 233 237 233 234 195 200 242 246 244 206 208 228 213 227 235 249 210 193 182 174 171 171 176 178 175 174 173 175 176 177 179 179 182 185 183 183 183 180 173 176 159
237 243 236 232 238 239 234 234 235 236 238 246 234 209 197 192 200 239 249 247 198 183 177 173 172 175 177 176 176 174 174 175 177 179 182 183 185 186 184 186 184 185 182 182
235 238 238 235 229 232 231 233 235 236 235 237 249 257 191 188 187 226 223 232 202 187 179 171 172 175 177 180 180 177 176 174 176 179 181 183 183 185 187 185 186 186 187 174
231 235 236 236 236 233 234 233 230 238 238 234 241 270 302 234 190 214 246 189 239 218 184 174 168 177 185 183 181 180 178 177 178 177 179 183 184 185 188 190 190 187 186 190
240 228 229 234 232 225 229 231 233 238 237 234 237 260 295 322 227 212 197 178 196 237 227 186 172 174 181 182 182 181 180 181 182 181 182 184 187 187 189 189 191 190 190 189
244 233 229 228 230 230 226 231 232 232 235 235 233 259 270 271 267 258 225 237 242 225 238 198 189 178 181 186 187 186 185 186 185 184 186 188 190 191 191 191 192 194 194 196
241 234 232 232 233 238 231 232 232 231 235 234 238 241 256 269 262 251 245 250 229 215 237 230 227 193 179 201 195 196 194 191 189 188 189 193 194 195 197 196 196 197 198 201
256 232 234 233 234 242 241 230 232 233 233 236 235 243 231 246 239 230 226 247 248 263 248 254 250 255 252 222 201 197 197 198 196 192 192 194 196 197 200 201 201 201 202 202
250 244 236 228 235 237 238 234 230 232 231 233 233 239 190 208 223 218 233 248 259 260 262 261 257 257 259 258 244 228 220 225 215 192 194 193 194 196 200 203 204 204 204 204
246 244 239 230 235 231 239 239 240 234 232 232 234 230 230 222 207 232 255 260 261 263 264 265 262 265 266 260 249 252 248 237 229 230 208 203 200 201 203 203 206 206 208 210
245 243 238 229 231 236 238 238 233 239 229 234 231 232 238 253 252 258 262 268 265 265 260 265 266 259 263 261 254 243 241 237 226 213 214 224 231 220 212 211 211 213 211 214
240 242 236 235 231 231 240 247 244 234 229 267 245 237 239 247 247 260 277 280 276 274 274 269 268 270 262 268 261 270 245 246 233 219 233 254 246 237 229 230 226 229 226 219
233 235 231 232 230 246 257 283 236 227 234 263 264 247 245 248 261 272 281 282 277 273 274 274 276 274 278 278 270 267 263 261 237 258 264 264 264 253 255 257 249 249 248 251
231 232 231 231 229 234 286 255 235 237 255 261 258 264 258 261 268 275 281 281 278 276 278 274 272 271 272 274 269 264 263 263 261 263 265 268 271 266 266 261 264 260 263 260
235 242 233 233 228 251 269 267 270 263 256 263 261 265 268 266 268 274 279 281 280 280 283 287 278 277 279 281 273 266 268 271 268 268 268 269 271 269 267 263 264 266 266 266
259 258 247 244 239 254 262 263 269 270 261 268 266 268 270 269 275 278 283 279 282 287 289 288 283 278 280 284 283 279 279 278 274 274 277 276 275 274 270 269 267 267 268 270
258 262 253 252 248 252 257 261 263 266 268 266 267 267 269 271 278 279 279 278 279 285 290 289 285 284 284 286 283 286 287 285 278 274 278 280 278 277 277 274 273 272 275 280
265 259 254 251 258 258 256 265 262 259 261 263 264 267 270 272 274 275 281 281 280 281 284 283 283 285 287 288 287 287 287 285 284 277 278 280 280 278 279 279 281 279 285 292